This demonstration page uses our WeatherBlox Daily Observations layout. Learn more.

Left ArrowRight Arrow

Hourly Observations for September 8, 2019

Temp ( °F °C ) Dew Point ( °F °C ) Humidity (%) Winds ( mph kmh ) Pressure ( in mb ) Visibility ( mi km ) Precip ( " mm )
12:59 am 00:59 Mostly Clear 70 21.1 67 19.4 90 90 SE 3 6 30.00 1016 10 16 0.00 0.00
1:59 am 01:59 Mostly Clear 70 21.1 67 19.4 90 90 SSE 5 7 30.00 1016 10 16 0.00 0.00
2:59 am 02:59 Mostly Clear 70 21.1 67 19.4 90 90 ESE 5 7 30.00 1016 10 16 0.00 0.00
3:59 am 03:59 Mostly Clear 68 20 67 19.4 96 96 E 3 6 29.99 1016 10 16 0.00 0.00
4:59 am 04:59 Mostly Cloudy 68 20 67 19.4 96 96 ESE 3 6 30.00 1016 10 16 0.00 0.00
5:59 am 05:59 Mostly Cloudy 68 20 67 19.4 96 96 Calm 30.01 1016 10 16 0.00 0.00
6:59 am 06:59 Mostly Cloudy 69 20.6 68 20 96 96 Calm 30.03 1017 9 14 0.00 0.00
7:19 am 07:19 Mostly Cloudy 70 21.1 68 20 93 93 Calm 30.03 1017 9 14 0.00 0.00
7:26 am 07:26 Mostly Cloudy 70 21.1 68 20 93 93 Calm 30.04 1017 9 14 0.00 0.00
7:59 am 07:59 Partly Cloudy 72 22.2 70 21.1 94 94 Calm 30.04 1017 10 16 0.00 0.00
8:59 am 08:59 Mostly Cloudy 77 25 73 22.8 88 88 S 5 7 30.06 1018 10 16 0.00 0.00
9:17 am 09:17 Mostly Cloudy 78 25.6 73 22.8 85 85 S 3 6 30.06 1018 10 16 0.00 0.00
9:59 am 09:59 Mostly Cloudy 79 26.1 73 22.8 82 82 Calm 30.07 1018 10 16 0.00 0.00
10:12 am 10:12 Mostly Cloudy 81 27.2 74 23.3 79 79 NNW 7 11 30.07 1018 10 16 0.00 0.00
10:59 am 10:59 Cloudy 78 25.6 73 22.8 85 85 NNW 8 13 30.08 1019 10 16 0.00 0.00
11:36 am 11:36 Mostly Cloudy 81 27.2 73 22.8 77 77 VRB 5 7 30.06 1018 10 16 0.00 0.00
11:59 am 11:59 Mostly Cloudy 81 27.2 73 22.8 77 77 NNW 6 9 30.06 1018 10 16 0.00 0.00
12:47 pm 12:47 Cloudy 81 27.2 73 22.8 77 77 ENE 9 15 30.05 1018 10 16 0.00 0.00
12:59 pm 12:59 Mostly Cloudy 83 28.3 74 23.3 74 74 ENE 7 11 30.05 1018 10 16 0.00 0.00
1:59 pm 13:59 Mostly Cloudy 82 27.8 74 23.3 77 77 NE 10 17 30.04 1017 10 16 0.00 0.00
2:59 pm 14:59 Mostly Cloudy 82 27.8 74 23.3 77 77 NE 13 20 30.03 1017 10 16 0.00 0.00
3:59 pm 15:59 Mostly Cloudy 82 27.8 75 23.9 79 79 NE 13 20 30.02 1017 10 16 0.00 0.00
4:59 pm 16:59 Mostly Cloudy 81 27.2 75 23.9 82 82 NE 10 17 30.01 1016 10 16 0.00 0.00
5:28 pm 17:28 Mostly Cloudy 80 26.7 74 23.3 82 82 NNE 10 17 30.02 1017 10 16 0.00 0.00
5:36 pm 17:36 Mostly Cloudy 80 26.7 74 23.3 82 82 NNE 13 20 30.03 1017 10 16 0.00 0.00
5:59 pm 17:59 Mostly Cloudy 79 26.1 74 23.3 85 85 NNE 9 15 30.02 1017 10 16 0.00 0.00
6:59 pm 18:59 Mostly Cloudy 78 25.6 75 23.9 90 90 ENE 12 19 30.03 1017 10 16 0.00 0.00
7:47 pm 19:47 Cloudy 77 25 75 23.9 94 94 NE 12 19 30.06 1018 10 16 0.00 0.00
7:59 pm 19:59 Cloudy 77 25 74 23.3 90 90 ENE 13 20 30.06 1018 10 16 0.00 0.00
8:59 pm 20:59 Cloudy 76 24.4 74 23.3 94 94 ENE 9 15 30.07 1018 10 16 0.00 0.00
9:59 pm 21:59 Cloudy 76 24.4 74 23.3 94 94 ENE 10 17 30.09 1019 10 16 0.00 0.00
10:59 pm 22:59 Cloudy 76 24.4 74 23.3 94 94 ENE 8 13 30.09 1019 8 13 0.00 0.00
11:23 pm 23:23 Cloudy 76 24.4 74 23.3 94 94 E 8 13 30.09 1019 9 14 0.00 0.00
11:40 pm 23:40 Partly Cloudy 75 23.9 73 22.8 94 94 E 6 9 30.09 1019 9 14 0.00 0.00
11:59 pm 23:59 Partly Cloudy 75 23.9 73 22.8 94 94 E 7 11 30.09 1019 9 14 0.00 0.00

Powered by AerisWeather